User: anonymous   Login
Location: Boiro
(42.6475°N, 8.8834°W)
Time: 21:42:31
(UTC+01:00)
Language:

BEESAT 3 - Orbit

View from above orbital plane
View from above orbital plane
View from above satellite
View from above satellite

Ground track
Ground track

The orbit data is extracted from the following two-line orbital elements,

1 39134U 13015E   22018.84313122  .00008199  00000-0  33714-3 0  9995
2 39134  64.8618 191.2198 0028362 302.7120  57.1276 15.24425736484027
Epoch (UTC): 18 January 2022 20:14:06
Eccentricity: 0.0028362
inclination: 64.8618°
perigee height: 473 km
apogee height: 512 km
right ascension of ascending node: 191.2198°
argument of perigee: 302.7120°
revolutions per day: 15.24425736
mean anomaly at epoch: 57.1276°
orbit number at epoch: 48402

The dashed part of the orbit path shows where the satellite is in the earth's shadow,  

DLR